MILAN79 LFTW-LFTW

Flight info

Callsign MILAN79
Flight time 1h 12m
Altitude 18000
Route FJR G393 AFRIC/N0321F240 DCT LFBO DCT AMOLO/N0313F190 G39 AFRIC G393 FJR
Aircraft DH8D/M-SDE2E3FGRY/H

Departure

Time 2026-04-15 20:24
Airport Nîmes-Arles-Camargue Airport (LFTW)

Arrival

Time 2026-04-15 21:37
Airport Nîmes-Arles-Camargue Airport (LFTW)
Time Latitude Longitude Altitude Speed Heading
2026-04-15 19:54 43.75488 4.41243 311 ft 0 kts 356°
2026-04-15 20:18 43.75513 4.41248 310 ft 1 kts 26°
2026-04-15 20:19 43.75517 4.41251 310 ft 1 kts 33°
2026-04-15 20:19 43.75519 4.41258 310 ft 1 kts 81°
2026-04-15 20:19 43.75519 4.41270 310 ft 3 kts 88°
2026-04-15 20:19 43.75520 4.41310 310 ft 4 kts 87°
2026-04-15 20:20 43.75521 4.41368 310 ft 6 kts 104°
2026-04-15 20:20 43.75473 4.41391 309 ft 8 kts 176°
2026-04-15 20:20 43.75407 4.41397 309 ft 10 kts 177°
2026-04-15 20:20 43.75331 4.41401 309 ft 11 kts 177°
2026-04-15 20:21 43.75251 4.41407 310 ft 11 kts 176°
2026-04-15 20:21 43.75174 4.41413 310 ft 8 kts 176°
2026-04-15 20:21 43.75138 4.41437 310 ft 6 kts 106°
2026-04-15 20:21 43.75138 4.41473 310 ft 3 kts 85°
2026-04-15 20:22 43.75140 4.41515 310 ft 5 kts 87°
2026-04-15 20:22 43.75142 4.41562 309 ft 1 kts 86°
2026-04-15 20:22 43.75142 4.41572 309 ft 0 kts 86°
2026-04-15 20:23 43.75143 4.41580 308 ft 3 kts 86°
2026-04-15 20:23 43.75145 4.41643 307 ft 5 kts 86°
2026-04-15 20:23 43.75166 4.41678 306 ft 5 kts
2026-04-15 20:24 43.75273 4.41672 305 ft 38 kts 358°
2026-04-15 20:24 43.76924 4.41568 769 ft 149 kts 358°
2026-04-15 20:24 43.77875 4.41541 1734 ft 141 kts 359°
2026-04-15 20:25 43.78788 4.41280 2628 ft 135 kts 339°
2026-04-15 20:25 43.79623 4.40593 3140 ft 156 kts 324°
2026-04-15 20:25 43.80437 4.39401 3476 ft 182 kts 308°
2026-04-15 20:25 43.80989 4.37832 4171 ft 188 kts 291°
2026-04-15 20:26 43.81194 4.36023 4899 ft 195 kts 275°
2026-04-15 20:26 43.80860 4.34180 5571 ft 207 kts 244°
2026-04-15 20:26 43.80054 4.32542 6288 ft 211 kts 237°
2026-04-15 20:26 43.79250 4.31071 6964 ft 213 kts 236°
2026-04-15 20:27 43.78317 4.29445 7687 ft 215 kts 234°
2026-04-15 20:27 43.77377 4.27864 8386 ft 217 kts 233°
2026-04-15 20:27 43.76391 4.26246 9114 ft 219 kts 232°
2026-04-15 20:27 43.75396 4.24644 9827 ft 220 kts 232°
2026-04-15 20:28 43.74390 4.23043 10502 ft 224 kts 232°
2026-04-15 20:28 43.73373 4.21443 11161 ft 226 kts 231°
2026-04-15 20:28 43.72321 4.19793 11824 ft 228 kts 232°
2026-04-15 20:28 43.71267 4.18137 12439 ft 230 kts 232°
2026-04-15 20:29 43.70216 4.16495 13025 ft 232 kts 232°
2026-04-15 20:29 43.69127 4.14800 13617 ft 234 kts 232°
2026-04-15 20:29 43.68039 4.13110 14169 ft 238 kts 232°
2026-04-15 20:29 43.66936 4.11400 14746 ft 239 kts 232°
2026-04-15 20:30 43.65826 4.09683 15274 ft 241 kts 232°
2026-04-15 20:30 43.64707 4.07955 15779 ft 244 kts 232°
2026-04-15 20:30 43.63560 4.06186 16271 ft 247 kts 233°
2026-04-15 20:30 43.62418 4.04426 16786 ft 248 kts 232°
2026-04-15 20:31 43.61262 4.02647 17276 ft 250 kts 233°
2026-04-15 20:31 43.60179 4.00784 17734 ft 247 kts 246°
2026-04-15 20:31 43.59774 3.98537 18116 ft 237 kts 278°
2026-04-15 20:31 43.60101 3.96345 18500 ft 235 kts 289°
2026-04-15 20:32 43.60503 3.94148 18950 ft 236 kts 288°
2026-04-15 20:32 43.60685 3.91871 19374 ft 242 kts 273°
2026-04-15 20:32 43.60583 3.89573 19789 ft 243 kts 271°
2026-04-15 20:32 43.60485 3.87216 20177 ft 245 kts 271°
2026-04-15 20:33 43.60387 3.84876 20582 ft 245 kts 271°
2026-04-15 20:33 43.60287 3.82536 20955 ft 245 kts 271°
2026-04-15 20:33 43.60187 3.80238 21295 ft 246 kts 271°
2026-04-15 20:33 43.60082 3.77858 21646 ft 247 kts 271°
2026-04-15 20:34 43.59977 3.75477 21976 ft 248 kts 271°
2026-04-15 20:34 43.59869 3.73082 22324 ft 249 kts 270°
2026-04-15 20:34 43.59759 3.70669 22635 ft 250 kts 270°
2026-04-15 20:34 43.59650 3.68275 22944 ft 250 kts 270°
2026-04-15 20:35 43.59540 3.65878 23229 ft 252 kts 270°
2026-04-15 20:35 43.59430 3.63494 23517 ft 252 kts 270°
2026-04-15 20:35 43.59316 3.61059 23767 ft 254 kts 270°
2026-04-15 20:35 43.59201 3.58607 24032 ft 254 kts 270°
2026-04-15 20:36 43.59087 3.56172 24280 ft 255 kts 270°
2026-04-15 20:36 43.58970 3.53697 24502 ft 257 kts 270°
2026-04-15 20:36 43.58854 3.51201 24498 ft 266 kts 270°
2026-04-15 20:36 43.58731 3.48615 24455 ft 275 kts 270°
2026-04-15 20:37 43.58602 3.45897 24238 ft 287 kts 270°
2026-04-15 20:37 43.58470 3.43190 24182 ft 287 kts 270°
2026-04-15 20:37 43.58340 3.40570 24178 ft 289 kts 270°
2026-04-15 20:37 43.58210 3.37908 24171 ft 292 kts 270°
2026-04-15 20:38 43.57792 3.29391 24173 ft 301 kts 269°
2026-04-15 20:38 43.57648 3.26518 24172 ft 298 kts 269°
2026-04-15 20:39 43.57503 3.23638 24178 ft 296 kts 269°
2026-04-15 20:39 43.57360 3.20812 24182 ft 296 kts 268°
2026-04-15 20:39 43.57216 3.17957 24235 ft 294 kts 269°
2026-04-15 20:39 43.57073 3.15105 24136 ft 298 kts 269°
2026-04-15 20:40 43.56929 3.12266 24171 ft 296 kts 269°
2026-04-15 20:40 43.56784 3.09437 24185 ft 295 kts 269°
2026-04-15 20:40 43.56640 3.06640 24193 ft 295 kts 269°
2026-04-15 20:40 43.56493 3.03799 24195 ft 295 kts 269°
2026-04-15 20:41 43.56348 3.00988 24197 ft 295 kts 269°
2026-04-15 20:41 43.56200 2.98170 24058 ft 291 kts 269°
2026-04-15 20:41 43.56056 2.95462 23656 ft 293 kts 269°
2026-04-15 20:41 43.55908 2.92677 23340 ft 292 kts 269°
2026-04-15 20:42 43.55760 2.89903 23050 ft 291 kts 269°
2026-04-15 20:42 43.55611 2.87113 22760 ft 289 kts 269°
2026-04-15 20:42 43.55461 2.84336 22459 ft 286 kts 269°
2026-04-15 20:42 43.55312 2.81581 22004 ft 286 kts 269°
2026-04-15 20:43 43.55165 2.78861 21605 ft 284 kts 269°
2026-04-15 20:43 43.55016 2.76129 21172 ft 283 kts 269°
2026-04-15 20:43 43.54869 2.73435 20764 ft 280 kts 269°
2026-04-15 20:43 43.54720 2.70749 20212 ft 279 kts 269°
2026-04-15 20:44 43.54574 2.68101 19642 ft 279 kts 269°
2026-04-15 20:44 43.54427 2.65448 19153 ft 276 kts 269°
2026-04-15 20:44 43.54282 2.62823 18595 ft 274 kts 270°
2026-04-15 20:44 43.54137 2.60222 18090 ft 272 kts 270°
2026-04-15 20:45 43.53997 2.57693 17583 ft 271 kts 270°
2026-04-15 20:45 43.53852 2.55111 17098 ft 268 kts 269°
2026-04-15 20:45 43.53708 2.52564 16496 ft 267 kts 269°
2026-04-15 20:45 43.53566 2.50035 15902 ft 266 kts 269°
2026-04-15 20:46 43.53421 2.47487 15339 ft 264 kts 269°
2026-04-15 20:46 43.53279 2.45005 14775 ft 262 kts 269°
2026-04-15 20:46 43.53133 2.42506 14246 ft 262 kts 269°
2026-04-15 20:46 43.52986 2.39983 13780 ft 259 kts 269°
2026-04-15 20:47 43.52850 2.37659 13343 ft 257 kts 269°
2026-04-15 20:47 43.52708 2.35213 12885 ft 256 kts 269°
2026-04-15 20:47 43.52566 2.32781 12459 ft 253 kts 268°
2026-04-15 20:47 43.52426 2.30364 11994 ft 252 kts 268°
2026-04-15 20:48 43.52286 2.27966 11574 ft 249 kts 268°
2026-04-15 20:48 43.52148 2.25600 11126 ft 248 kts 268°
2026-04-15 20:48 43.52010 2.23242 10726 ft 246 kts 268°
2026-04-15 20:48 43.51874 2.20915 10349 ft 244 kts 268°
2026-04-15 20:49 43.51736 2.18559 9993 ft 244 kts 268°
2026-04-15 20:49 43.51601 2.16228 9732 ft 243 kts 268°
2026-04-15 20:49 43.51464 2.13887 9491 ft 241 kts 268°
2026-04-15 20:49 43.51327 2.11577 9228 ft 241 kts 268°
2026-04-15 20:50 43.51192 2.09296 8999 ft 240 kts 268°
2026-04-15 20:50 43.51055 2.06998 8773 ft 239 kts 268°
2026-04-15 20:50 43.50918 2.04702 8546 ft 238 kts 268°
2026-04-15 20:50 43.50783 2.02451 8304 ft 237 kts 268°
2026-04-15 20:51 43.50646 2.00210 8033 ft 234 kts 268°
2026-04-15 20:51 43.50508 1.97950 7639 ft 234 kts 269°
2026-04-15 20:51 43.50371 1.95698 7283 ft 234 kts 269°
2026-04-15 20:51 43.50238 1.93525 6944 ft 235 kts 269°
2026-04-15 20:52 43.50101 1.91269 6675 ft 234 kts 269°
2026-04-15 20:52 43.49966 1.89072 6407 ft 232 kts 269°
2026-04-15 20:52 43.49830 1.86860 6136 ft 231 kts 269°
2026-04-15 20:52 43.49695 1.84679 5902 ft 229 kts 269°
2026-04-15 20:53 43.49560 1.82492 5634 ft 228 kts 269°
2026-04-15 20:53 43.49425 1.80316 5352 ft 228 kts 269°
2026-04-15 20:53 43.49291 1.78168 5095 ft 227 kts 268°
2026-04-15 20:53 43.49156 1.75998 4821 ft 227 kts 268°
2026-04-15 20:54 43.49021 1.73847 4574 ft 225 kts 268°
2026-04-15 20:54 43.48885 1.71685 4307 ft 224 kts 268°
2026-04-15 20:54 43.48751 1.69570 4052 ft 224 kts 268°
2026-04-15 20:54 43.48616 1.67436 3793 ft 223 kts 268°
2026-04-15 20:55 43.48480 1.65285 3544 ft 222 kts 268°
2026-04-15 20:55 43.48345 1.63170 3306 ft 220 kts 268°
2026-04-15 20:55 43.48189 1.61094 3094 ft 216 kts 264°
2026-04-15 20:55 43.48081 1.60277 3057 ft 214 kts 262°
2026-04-15 20:56 43.47825 1.58679 3005 ft 206 kts 261°
2026-04-15 20:56 43.47543 1.56785 2977 ft 197 kts 268°
2026-04-15 20:56 43.47778 1.54973 2979 ft 194 kts 295°
2026-04-15 20:57 43.48403 1.53298 2985 ft 196 kts 299°
2026-04-15 20:57 43.49025 1.51607 2985 ft 199 kts 299°
2026-04-15 20:57 43.49825 1.50063 2976 ft 198 kts 320°
2026-04-15 20:57 43.50899 1.48885 2981 ft 199 kts 322°
2026-04-15 20:58 43.51963 1.47623 2960 ft 202 kts 322°
2026-04-15 20:58 43.53124 1.46366 2706 ft 217 kts 324°
2026-04-15 20:58 43.54326 1.45100 2382 ft 210 kts 323°
2026-04-15 20:58 43.55422 1.43933 2060 ft 187 kts 324°
2026-04-15 20:59 43.56389 1.42923 1831 ft 165 kts 324°
2026-04-15 20:59 43.57258 1.42021 1625 ft 145 kts 324°
2026-04-15 20:59 43.58021 1.41229 1415 ft 127 kts 323°
2026-04-15 20:59 43.58700 1.40532 1266 ft 118 kts 324°
2026-04-15 21:00 43.59365 1.39855 1137 ft 121 kts 323°
2026-04-15 21:00 43.60034 1.39154 982 ft 120 kts 323°
2026-04-15 21:00 43.60705 1.38465 825 ft 119 kts 324°
2026-04-15 21:00 43.61366 1.37778 690 ft 120 kts 321°
2026-04-15 21:01 43.62027 1.37083 536 ft 119 kts 322°
2026-04-15 21:01 43.62647 1.36429 498 ft 102 kts 324°
2026-04-15 21:01 43.63323 1.35744 638 ft 137 kts 324°
2026-04-15 21:01 43.64068 1.35025 1443 ft 132 kts 323°
2026-04-15 21:02 43.64738 1.34257 2294 ft 129 kts 324°
2026-04-15 21:02 43.65635 1.34134 2876 ft 140 kts 21°
2026-04-15 21:02 43.66458 1.34788 3667 ft 142 kts 27°
2026-04-15 21:02 43.67319 1.35465 4460 ft 144 kts 27°
2026-04-15 21:03 43.68218 1.36205 4993 ft 170 kts 32°
2026-04-15 21:03 43.68940 1.37739 5305 ft 208 kts 71°
2026-04-15 21:03 43.69245 1.39721 5987 ft 215 kts 76°
2026-04-15 21:03 43.69524 1.41735 6746 ft 217 kts 77°
2026-04-15 21:04 43.69798 1.43817 7475 ft 222 kts 77°
2026-04-15 21:04 43.70067 1.45921 8191 ft 226 kts 77°
2026-04-15 21:04 43.70334 1.48053 8922 ft 229 kts 77°
2026-04-15 21:04 43.70602 1.50236 9671 ft 232 kts 77°
2026-04-15 21:05 43.70864 1.52407 10413 ft 234 kts 77°
2026-04-15 21:05 43.71133 1.54652 11132 ft 237 kts 77°
2026-04-15 21:05 43.71401 1.56902 11796 ft 240 kts 77°
2026-04-15 21:05 43.71676 1.59221 12456 ft 243 kts 77°
2026-04-15 21:06 43.71949 1.61539 13077 ft 246 kts 77°
2026-04-15 21:06 43.72220 1.63850 13703 ft 248 kts 78°
2026-04-15 21:06 43.72498 1.66227 14324 ft 250 kts 78°
2026-04-15 21:06 43.72774 1.68592 14888 ft 253 kts 78°
2026-04-15 21:07 43.73055 1.71014 15451 ft 256 kts 78°
2026-04-15 21:07 43.73338 1.73455 16027 ft 259 kts 78°
2026-04-15 21:07 43.73624 1.75925 16538 ft 262 kts 77°
2026-04-15 21:07 43.73912 1.78440 17036 ft 265 kts 77°
2026-04-15 21:08 43.74194 1.80984 17571 ft 266 kts 78°
2026-04-15 21:08 43.74471 1.83502 18055 ft 269 kts 78°
2026-04-15 21:08 43.74755 1.86077 18546 ft 271 kts 78°
2026-04-15 21:08 43.75040 1.88631 18995 ft 273 kts 78°
2026-04-15 21:09 43.75343 1.91310 19171 ft 288 kts 78°
2026-04-15 21:09 43.75666 1.94149 19233 ft 304 kts 78°
2026-04-15 21:09 43.76007 1.97134 19245 ft 316 kts 78°
2026-04-15 21:09 43.76350 2.00154 19241 ft 320 kts 78°
2026-04-15 21:10 43.76699 2.03223 19242 ft 323 kts 78°
2026-04-15 21:10 43.77047 2.06299 19230 ft 328 kts 78°
2026-04-15 21:10 43.77403 2.09441 19231 ft 331 kts 78°
2026-04-15 21:10 43.77758 2.12592 19230 ft 333 kts 78°
2026-04-15 21:11 43.78116 2.15780 19227 ft 335 kts 78°
2026-04-15 21:11 43.78473 2.18963 19224 ft 335 kts 78°
2026-04-15 21:11 43.78836 2.22203 19225 ft 336 kts 78°
2026-04-15 21:11 43.79195 2.25420 19222 ft 336 kts 78°
2026-04-15 21:12 43.79545 2.28561 19227 ft 337 kts 78°
2026-04-15 21:12 43.79887 2.31633 19225 ft 338 kts 78°
2026-04-15 21:12 43.80242 2.34843 19219 ft 338 kts 78°
2026-04-15 21:12 43.80585 2.37939 19223 ft 337 kts 78°
2026-04-15 21:13 43.80913 2.40920 19219 ft 336 kts 78°
2026-04-15 21:13 43.81265 2.44119 19222 ft 335 kts 78°
2026-04-15 21:13 43.81617 2.47326 19217 ft 334 kts 78°
2026-04-15 21:13 43.81970 2.50549 19221 ft 333 kts 78°
2026-04-15 21:14 43.82316 2.53717 19206 ft 333 kts 78°
2026-04-15 21:14 43.82635 2.56898 19211 ft 334 kts 81°
2026-04-15 21:14 43.82407 2.60095 19242 ft 337 kts 100°
2026-04-15 21:14 43.81823 2.63294 19223 ft 338 kts 102°
2026-04-15 21:15 43.81231 2.66453 19210 ft 339 kts 103°
2026-04-15 21:15 43.80640 2.69594 19203 ft 339 kts 102°
2026-04-15 21:15 43.80044 2.72770 19207 ft 339 kts 102°
2026-04-15 21:15 43.79458 2.75899 19211 ft 340 kts 102°
2026-04-15 21:16 43.78865 2.79067 19209 ft 339 kts 102°
2026-04-15 21:16 43.78281 2.82213 19207 ft 339 kts 102°
2026-04-15 21:16 43.77697 2.85371 19204 ft 339 kts 102°
2026-04-15 21:16 43.77117 2.88536 19206 ft 338 kts 101°
2026-04-15 21:17 43.76566 2.91685 19213 ft 338 kts 101°
2026-04-15 21:17 43.76035 2.94765 19211 ft 338 kts 101°
2026-04-15 21:17 43.75489 2.97913 19212 ft 336 kts 101°
2026-04-15 21:17 43.74948 3.01041 19221 ft 335 kts 101°
2026-04-15 21:18 43.74402 3.04183 19214 ft 334 kts 101°
2026-04-15 21:18 43.73860 3.07290 19218 ft 334 kts 101°
2026-04-15 21:18 43.73317 3.10398 19212 ft 333 kts 101°
2026-04-15 21:18 43.72773 3.13503 19211 ft 332 kts 101°
2026-04-15 21:19 43.72229 3.16608 19209 ft 332 kts 101°
2026-04-15 21:19 43.71686 3.19699 19204 ft 332 kts 101°
2026-04-15 21:19 43.71139 3.22804 19197 ft 331 kts 101°
2026-04-15 21:19 43.70590 3.25917 19194 ft 331 kts 101°
2026-04-15 21:20 43.70038 3.29046 19195 ft 330 kts 101°
2026-04-15 21:20 43.69494 3.32118 19197 ft 330 kts 101°
2026-04-15 21:20 43.68949 3.35194 19196 ft 329 kts 101°
2026-04-15 21:20 43.68404 3.38263 19189 ft 328 kts 101°
2026-04-15 21:21 43.67858 3.41336 19186 ft 328 kts 101°
2026-04-15 21:21 43.67306 3.44433 19184 ft 328 kts 101°
2026-04-15 21:21 43.66758 3.47505 18926 ft 328 kts 101°
2026-04-15 21:21 43.66219 3.50548 18389 ft 321 kts 100°
2026-04-15 21:22 43.65698 3.53482 17927 ft 313 kts 100°
2026-04-15 21:22 43.65186 3.56370 17503 ft 305 kts 100°
2026-04-15 21:22 43.64689 3.59185 17092 ft 297 kts 100°
2026-04-15 21:22 43.64202 3.61937 16698 ft 290 kts 100°
2026-04-15 21:23 43.63724 3.64635 16308 ft 286 kts 100°
2026-04-15 21:23 43.63268 3.67198 15946 ft 283 kts 101°
2026-04-15 21:23 43.62800 3.69826 15559 ft 280 kts 101°
2026-04-15 21:23 43.62336 3.72428 15181 ft 279 kts 101°
2026-04-15 21:24 43.61875 3.75007 14807 ft 278 kts 101°
2026-04-15 21:24 43.61457 3.77339 14469 ft 276 kts 101°
2026-04-15 21:24 43.61001 3.79888 14102 ft 274 kts 101°
2026-04-15 21:24 43.60548 3.82412 13738 ft 272 kts 101°
2026-04-15 21:25 43.60092 3.84945 13374 ft 271 kts 101°
2026-04-15 21:25 43.59640 3.87456 13011 ft 269 kts 101°
2026-04-15 21:25 43.59187 3.89970 12645 ft 267 kts 101°
2026-04-15 21:25 43.58762 3.92324 12305 ft 267 kts 101°
2026-04-15 21:26 43.58315 3.94795 11948 ft 265 kts 101°
2026-04-15 21:26 43.57871 3.97245 11591 ft 262 kts 101°
2026-04-15 21:26 43.57397 3.99678 11236 ft 262 kts 103°
2026-04-15 21:26 43.56877 4.02073 10886 ft 261 kts 104°
2026-04-15 21:27 43.56350 4.04482 10533 ft 260 kts 104°
2026-04-15 21:27 43.55833 4.06853 10184 ft 259 kts 104°
2026-04-15 21:27 43.55323 4.09199 9841 ft 257 kts 104°
2026-04-15 21:27 43.54809 4.11562 9496 ft 256 kts 104°
2026-04-15 21:28 43.54300 4.13905 9147 ft 255 kts 104°
2026-04-15 21:28 43.53791 4.16252 8808 ft 255 kts 103°
2026-04-15 21:28 43.53286 4.18575 8463 ft 254 kts 103°
2026-04-15 21:28 43.52780 4.20905 8117 ft 252 kts 103°
2026-04-15 21:29 43.52275 4.23229 7778 ft 252 kts 103°
2026-04-15 21:29 43.51772 4.25543 7433 ft 251 kts 103°
2026-04-15 21:29 43.51274 4.27835 7102 ft 250 kts 103°
2026-04-15 21:29 43.50778 4.30111 6758 ft 248 kts 103°
2026-04-15 21:30 43.50382 4.32425 6385 ft 244 kts 90°
2026-04-15 21:30 43.50543 4.34723 5987 ft 239 kts 76°
2026-04-15 21:30 43.50836 4.36942 5631 ft 233 kts 75°
2026-04-15 21:30 43.51123 4.39100 5303 ft 224 kts 75°
2026-04-15 21:31 43.52386 4.42554 4526 ft 192 kts 20°
2026-04-15 21:31 43.53665 4.42812 4243 ft 181 kts
2026-04-15 21:32 43.56076 4.42983 3844 ft 173 kts
2026-04-15 21:32 43.57281 4.43081 3627 ft 175 kts
2026-04-15 21:32 43.58512 4.43179 3396 ft 176 kts
2026-04-15 21:32 43.59727 4.43278 3166 ft 176 kts
2026-04-15 21:33 43.60939 4.43369 2932 ft 175 kts 360°
2026-04-15 21:33 43.62145 4.43217 2722 ft 171 kts 352°
2026-04-15 21:33 43.63335 4.42980 2485 ft 168 kts 353°
2026-04-15 21:33 43.64451 4.42784 2275 ft 155 kts 353°
2026-04-15 21:34 43.65486 4.42622 2083 ft 144 kts 354°
2026-04-15 21:34 43.66472 4.42486 1890 ft 139 kts 356°
2026-04-15 21:34 43.67003 4.42419 1777 ft 130 kts 354°
2026-04-15 21:34 43.67847 4.42316 1581 ft 111 kts 356°
2026-04-15 21:35 43.68583 4.42241 1485 ft 107 kts 359°
2026-04-15 21:35 43.69387 4.42186 1349 ft 119 kts 358°
2026-04-15 21:35 43.70225 4.42116 1192 ft 123 kts 358°
2026-04-15 21:35 43.71075 4.42014 1017 ft 119 kts 355°
2026-04-15 21:36 43.71875 4.41933 837 ft 112 kts 356°
2026-04-15 21:36 43.72648 4.41860 686 ft 110 kts 359°
2026-04-15 21:36 43.73419 4.41809 591 ft 110 kts 358°
2026-04-15 21:36 43.74192 4.41744 421 ft 112 kts 356°
2026-04-15 21:37 43.74957 4.41691 316 ft 110 kts 358°
2026-04-15 21:37 43.75644 4.41645 305 ft 71 kts 355°
2026-04-15 21:37 43.75854 4.41622 308 ft 13 kts 328°
2026-04-15 21:37 43.75874 4.41538 308 ft 7 kts 266°
2026-04-15 21:38 43.75870 4.41462 308 ft 8 kts 265°
2026-04-15 21:38 43.75867 4.41392 310 ft 6 kts 263°
2026-04-15 21:38 43.75835 4.41366 310 ft 6 kts 174°
2026-04-15 21:38 43.75784 4.41369 310 ft 8 kts 177°
2026-04-15 21:39 43.75720 4.41374 310 ft 9 kts 176°
2026-04-15 21:39 43.75646 4.41380 310 ft 11 kts 177°
2026-04-15 21:39 43.75583 4.41384 310 ft 9 kts 176°
2026-04-15 21:39 43.75526 4.41388 310 ft 9 kts 177°
2026-04-15 21:40 43.75484 4.41391 310 ft 9 kts 177°
2026-04-15 21:40 43.75452 4.41353 310 ft 6 kts 264°
2026-04-15 21:40 43.75448 4.41291 311 ft 5 kts 252°
2026-04-15 21:40 43.75413 4.41263 311 ft 6 kts 177°
2026-04-15 21:41 43.75409 4.41263 311 ft 0 kts 177°